Bowling Green, KY

7:40 AM CDT on June 22, 2017 (GMT -0500)
Bowling Green-Warren County Regional

Weather History for KBWG - May, 2014

Change the Weather History Date:

Thursday, May 15, 2014

  Actual Average Record
Temperature  
Mean Temperature 54 °F 66 °F  
Max Temperature 60 °F 77 °F 92 °F (1962)
Min Temperature 48 °F 55 °F 36 °F (1904)
Degree Days  
Heating Degree Days 11 2  
Month to date heating degree days 41 51  
Since 1 July heating degree days 4498 4020  
Cooling Degree Days 0 3  
Month to date cooling degree days 74 37  
Year to date cooling degree days 88 73  
Growing Degree Days 4 (Base 50)    
Moisture  
Dew Point 45 °F    
Average Humidity 72    
Maximum Humidity 93    
Minimum Humidity 51    
Precipitation  
Precipitation T in 0.19 in 3.04 in (1983)
Month to date precipitation 2.90 2.81  
Year to date precipitation 20.37 19.13  
Snow  
Snow 0.00 in 0.00 in 0.00 in ()
Month to date snowfall 0.0 0.0  
Since 1 July snowfall 10.4 9.1  
Snow Depth 0.00 in    
Sea Level Pressure  
Sea Level Pressure 30.03 in    
Wind  
Wind Speed 7 mph (WNW)    
Max Wind Speed 16 mph    
Max Gust Speed 22 mph    
Visibility 10 miles    
Events Rain    
T = Trace of Precipitation, MM = Missing Value Source: NWS Daily Summary

Daily Weather History Graph

Daily Weather History Graph

Search for Another Location

Airport or City:

Trip Planner

Search our weather history database for the weather conditions in past years. The results will help you decide how hot, cold, wet, or windy it might be!

Date:

Astronomy

May. 15, 2014 Rise Set
Actual Time 5:37 AM CDT 7:46 PM CDT
Civil Twilight 5:08 AM CDT 8:15 PM CDT
Nautical Twilight 4:33 AM CDT 8:51 PM CDT
Astronomical Twilight 3:54 AM CDT 9:30 PM CDT
Moon 8:54 PM CDT (5/15) 6:23 AM CDT (5/15)
Length of Visible Light 15h 07m
Length of Day
14h 09m
Full, 99% of the Moon is Illuminated
May 15
Full
May 21
Last Quarter
May 28
New
Jun 5
First Quarter
Jun 12
Full

Hourly Weather History & Observations

Time (CDT) Temp. Dew Point Humidity Pressure Visibility Wind Dir Wind Speed Gust Speed Precip Events Conditions
12:53 AM 54.0 °F 52.0 °F 93% 29.90 in 10.0 mi West 15.0 mph - N/A   Overcast
1:53 AM 53.1 °F 50.0 °F 89% 29.90 in 10.0 mi West 11.5 mph - N/A   Overcast
2:27 AM 52.0 °F 48.9 °F 89% 29.91 in 10.0 mi WNW 12.7 mph 18.4 mph N/A   Overcast
2:53 AM 52.0 °F 48.9 °F 89% 29.92 in 10.0 mi West 9.2 mph - N/A   Overcast
3:53 AM 50.0 °F 46.9 °F 89% 29.94 in 10.0 mi West 10.4 mph - 0.00 in   Overcast
4:01 AM 50.0 °F 46.9 °F 89% 29.94 in 10.0 mi West 11.5 mph - N/A   Overcast
4:53 AM 50.0 °F 46.9 °F 89% 29.95 in 9.0 mi West 8.1 mph - N/A   Overcast
5:53 AM 50.0 °F 46.0 °F 86% 29.98 in 10.0 mi West 9.2 mph - N/A   Overcast
6:06 AM 50.0 °F 45.0 °F 83% 29.99 in 10.0 mi WNW 8.1 mph - N/A   Overcast
6:53 AM 50.0 °F 45.0 °F 83% 30.00 in 10.0 mi West 8.1 mph - N/A   Overcast
7:53 AM 50.0 °F 45.0 °F 83% 30.02 in 10.0 mi West 8.1 mph - N/A   Overcast
8:26 AM 50.0 °F 45.0 °F 83% 30.03 in 10.0 mi West 9.2 mph - N/A   Overcast
8:37 AM 51.1 °F 46.0 °F 83% 30.03 in 10.0 mi West 5.8 mph - N/A   Overcast
8:53 AM 51.1 °F 46.0 °F 83% 30.04 in 10.0 mi WNW 9.2 mph - N/A   Overcast
9:53 AM 51.1 °F 46.0 °F 83% 30.06 in 6.0 mi NW 5.8 mph - 0.00 in Rain Light Rain
10:53 AM 53.1 °F 45.0 °F 74% 30.07 in 10.0 mi NW 6.9 mph - 0.00 in   Overcast
11:31 AM 53.1 °F 44.1 °F 71% 30.09 in 10.0 mi West 15.0 mph - N/A   Overcast
11:53 AM 55.0 °F 46.0 °F 72% 30.09 in 10.0 mi West 8.1 mph - N/A   Overcast
12:05 PM 54.0 °F 45.0 °F 72% 30.09 in 10.0 mi WNW 8.1 mph 18.4 mph N/A   Overcast
12:42 PM 53.1 °F 43.0 °F 69% 30.09 in 10.0 mi WNW 11.5 mph 20.7 mph N/A   Overcast
12:53 PM 55.0 °F 44.1 °F 67% 30.09 in 10.0 mi West 15.0 mph 20.7 mph N/A   Overcast
2:53 PM 57.9 °F 44.1 °F 60% 30.09 in 10.0 mi NNW 8.1 mph 19.6 mph N/A   Mostly Cloudy
3:53 PM 57.0 °F 43.0 °F 59% 30.09 in 10.0 mi North 8.1 mph - N/A   Overcast
4:53 PM 59.0 °F 42.1 °F 53% 30.07 in 10.0 mi WNW 9.2 mph - N/A   Scattered Clouds
5:53 PM 59.0 °F 41.0 °F 51% 30.06 in 10.0 mi Variable 5.8 mph - N/A   Clear
6:53 PM 57.9 °F 41.0 °F 53% 30.06 in 10.0 mi Variable 3.5 mph - N/A   Clear
7:53 PM 55.9 °F 42.1 °F 60% 30.09 in 10.0 mi Calm Calm - N/A   Clear
8:53 PM 50.0 °F 45.0 °F 83% 30.10 in 10.0 mi SE 3.5 mph - N/A   Mostly Cloudy
9:53 PM 50.0 °F 44.1 °F 80% 30.09 in 10.0 mi Calm Calm - N/A   Clear
10:53 PM 48.9 °F 44.1 °F 83% 30.07 in 10.0 mi ESE 3.5 mph - N/A   Clear
11:53 PM 50.0 °F 45.0 °F 83% 30.05 in 10.0 mi SSE 4.6 mph - N/A   Overcast